Regional Weather Roundup
Issued by NWS

Home | Current Version | Previous Version | Text Only | Print | Product List | Glossary Off
Versions: 1 2 3 4 5 6 7 8 9 10 11 12 13 14 15 16 17 18 19 20 21 22 23 24 25 26 27 28 29 30 31 32 33 34 35 36 37 38 39 40 41 42 43 44 45 46 47 48 49 50

000
ASUS45 KABQ 010801
RWRNM
WEATHER ROUNDUP FOR NEW MEXICO
NATIONAL WEATHER SERVICE ALBUQUERQUE NM
200 AM MDT WED OCT 01 2014

NOTE: "FAIR" MEANS FEW OR NO CLOUDS BELOW 12,000 FEET AGL WITH NO
       SIGNIFICANT WEATHER OR OBSTRUCTIONS TO VISION.

      THIS PRODUCT IS RELEASED AS TWO VERSIONS.  ONE VERSION NEAR
      THE TOP OF THE HOUR CONTAINING PRELIMINARY DATA FROM ALBUQUERQUE
      AND OTHER STATIONS.  A FINAL VERSION WITH ADDITIONAL DATA IS
      ISSUED ABOUT 10 MINUTES AFTER THE HOUR.

NMZ501-503-504-510>518-010900-
NORTHWEST PLATEAU/NORTHCENTRAL MOUNTAINS

CITY           SKY/WX    TMP DP  RH WIND       PRES   REMARKS
FARMINGTON     CLEAR     47  41  80 E7        29.95F
LOS ALAMOS     CLEAR     50  32  50 CALM      30.05R
SANTA FE       CLEAR     48  31  51 N12       29.99R
TAOS           CLEAR     37  30  75 NE3       30.04S
ANGEL FIRE     FAIR      32  28  86 CALM      30.08S

$$
NMZ402-403-502-505>509-010900-
WESTCENTRAL MOUNTAINS/SOUTHWEST MOUNTAINS

CITY           SKY/WX    TMP DP  RH WIND       PRES   REMARKS
GALLUP         CLEAR     42  37  82 CALM      30.01S
GRANTS         CLEAR     37  30  75 CALM      30.04S
SILVER CITY    CLEAR     52  37  58 N14       30.00S

$$
NMZ407-409-411-412-010900-
SOUTHERN DESERTS

CITY           SKY/WX    TMP DP  RH WIND       PRES   REMARKS
LORDSBURG      FAIR      57  36  44 MISG      29.94S
DEMING         CLEAR     55  39  54 SW7       29.94R
LAS CRUCES     CLEAR     60  32  34 W12       29.93F
HOLLOMAN AFB   PTCLDY    59  42  53 SE8       29.88R
ALAMOGORDO     PTCLDY    57  39  51 S9        29.90R
T OR C         CLEAR     61  36  39 NW9       29.92S

$$
NMZ519>523-010900-
CENTRAL VALLEYS/CENTRAL HIGHLANDS

CITY           SKY/WX    TMP DP  RH WIND       PRES   REMARKS
ALBUQUERQUE    CLEAR     54  33  45 CALM      29.96S
DOUBLE EAGLE   CLEAR     49  33  52 NW8       29.99S
CLINES CORNERS CLEAR     46  33  60 NW10      30.01S
BELEN          NOT AVBL
SOCORRO        FAIR      57  35  42 NW6       29.93R

$$
NMZ524>526-539-540-010900-
SOUTHCENTRAL MOUNTAINS

CITY           SKY/WX    TMP DP  RH WIND       PRES   REMARKS
RUIDOSO        NOT AVBL

$$
NMZ527>531-010900-
NORTHEAST HIGHLANDS/NORTHEAST PLAINS

CITY           SKY/WX    TMP DP  RH WIND       PRES   REMARKS
LAS VEGAS      CLEAR     49  31  49 NE5       30.00S
RATON          CLEAR     43  36  76 NE7       29.94S
CLAYTON        CLEAR     56  37  49 NW10      29.85R

$$
NMZ532>537-010900-
EASTCENTRAL PLAINS

CITY           SKY/WX    TMP DP  RH WIND       PRES   REMARKS
TUCUMCARI      CLEAR     55  43  63 W8        29.83R
CANNON AFB     CLEAR     60  42  50 NW12      29.86R
CLOVIS AIRPORT   N/A     55  43  62 W10       29.87S

$$
NMZ028-029-538-010900-
SOUTHEAST PLAINS

CITY           SKY/WX    TMP DP  RH WIND       PRES   REMARKS
ROSWELL        CLEAR     57  47  69 NE8       29.83R
CARLSBAD       CLEAR     63  52  67 S6        29.82S
HOBBS          CLEAR     63  54  72 S6        29.86S


$$



USA.gov is the U.S. government's official web portal to all federal, state and local government web resources and services.